Regional Weather Roundup
Issued by NWS Upton, NY

Current Version | Previous Version | Graphics & Text | Print | Product List | Glossary Off
Versions: 1 2 3 4 5 6 7 8 9 10 11 12 13 14 15 16 17 18 19 20 21 22 23 24 25 26 27 28 29 30 31 32 33 34 35 36 37 38 39 40 41 42 43 44 45 46 47 48 49 50

000
ASUS41 KOKX 292305
RWROKX

REGIONAL WEATHER ROUNDUP
NATIONAL WEATHER SERVICE NEW YORK NY
700 PM EDT TUE JUL 29 2014

NOTE: "FAIR" INDICATES FEW OR NO CLOUDS BELOW 12,000 FEET WITH NO
SIGNIFICANT WEATHER AND/OR OBSTRUCTIONS TO VISIBILITY.

NYZ071-072-176-178-NJZ106-104-300000-
NEW YORK CITY METRO AREA


CITY           SKY/WX    TMP DP  RH WIND       PRES   REMARKS
CENTRAL PARK   CLOUDY    74  48  39 CALM      29.96R
LAGUARDIA APRT PTSUNNY   74  49  41 NW10      29.92R
KENNEDY INTL   PTSUNNY   75  47  36 SW9       29.93R
NEWARK/LIBERTY PTSUNNY   75  49  39 NW9       29.93R
BRNX BOT. GARD   N/A     73  50  43 NW10      29.93F
TETERBORO      MOSUNNY   75  49  39 NW8       29.92R
$$

NYZ177-179-078>081-300000-
LONG ISLAND NEW YORK

CITY           SKY/WX    TMP DP  RH WIND       PRES   REMARKS
FARMINGDALE    CLOUDY    74  48  39 NW6       29.93R
ISLIP          PTSUNNY   75  50  41 NW8       29.91R
SHIRLEY        MOSUNNY   74  51  44 NW6       29.93R
WESTHAMPTON    SUNNY     73  56  54 SW7       29.94R
MONTAUK POINT    N/A     72  58  61 SW7       29.94R
$$

NYZ052-065-067-300000-
HUDSON VALLEY

CITY           SKY/WX    TMP DP  RH WIND       PRES   REMARKS
WHITE PLAINS   PTSUNNY   70  51  51 NW6       29.93R
NEWBURGH       PTSUNNY   70  55  60 NW9       29.95R
MONTGOMERY     CLOUDY    69  53  56 W5        29.94R
POUGHKEEPSIE   CLOUDY    72  53  51 NW3       29.92R
ALBANY         PTSUNNY   71  52  50 W8        29.92R
$$

NJZ001-105-106-008-010-013-015-019>022-104-300000-
NEW JERSEY

CITY           SKY/WX    TMP DP  RH WIND       PRES   REMARKS
NEWARK/LIBERTY PTSUNNY   75  49  39 NW9       29.93R
TETERBORO      MOSUNNY   75  49  39 NW8       29.92R
CALDWELL       CLOUDY    72  50  45 NW3       29.94R
MORRISTOWN     PTSUNNY   72  54  53 CALM      29.94R
SOMERVILLE     CLOUDY    71  54  54 CALM      29.93R
LINDEN         FAIR      75  49  39 NW9       29.95R
SUSSEX         CLOUDY    70  54  56 VRB3      29.95R
ANDOVER          N/A     69  53  56 CALM      29.96R
TRENTON        CLOUDY    72  52  49 NW3       29.94R
MILLVILLE      CLOUDY    70  60  70 CALM      29.95R
ATLANTIC CITY  CLOUDY    73  55  53 NW5       29.94R
WRIGHTSTOWN    CLOUDY    71  55  57 NW2       29.93R
TOMS RIVER     CLOUDY    72  55  56 CALM      29.95R
BELMAR         CLOUDY    72  54  53 W5        29.95R
$$

PAZ047>061-062-071-300000-
EASTERN PENNSYLVANIA

CITY           SKY/WX    TMP DP  RH WIND       PRES   REMARKS
PHILADELPHIA   CLOUDY    74  53  48 NW9       29.95R
ALLENTOWN      CLOUDY    71  51  49 CALM      29.96R
SCRANTON       CLOUDY    68  48  48 NW9       29.97R
$$

CTZ002-004>006-009-010-012-RIZ004-006-007-MAZ004-011-015-300000-
SOUTHERN NEW ENGLAND
 IN CT

CITY           SKY/WX    TMP DP  RH WIND       PRES   REMARKS
BRADLEY INTL   PTSUNNY   73  52  47 NW7       29.90R
HARTFORD       PTSUNNY   74  48  39 NW8       29.91R
DANBURY        CLOUDY    70  52  52 CALM      29.94R
WTRBRY/OXFORD  PTSUNNY   68  55  64 CALM      29.96R
BRIDGEPORT     MOSUNNY   74  52  46 W6        29.92R
MERIDEN        CLOUDY    72  52  49 W3        29.92R
NEW HAVEN      PTSUNNY   75  55  49 SW3       29.92R
CHESTER        MOCLDY    70  57  64 SW5       29.94R
GROTON         SUNNY     71  57  61 W6        29.91R
WILLIMANTIC    PTSUNNY   72  53  51 NW5       29.92R

 IN RI

CITY           SKY/WX    TMP DP  RH WIND       PRES   REMARKS
PROVIDENCE     MOSUNNY   74  54  49 W9        29.91R
BLOCK ISLAND   SUNNY     72  61  68 SW12      29.93R
WESTERLY       SUNNY     73  58  59 SW8       29.92R

 IN MA

CITY           SKY/WX    TMP DP  RH WIND       PRES   REMARKS
BOSTON         PTSUNNY   70  59  68 E9        29.89R
WORCESTER      MOSUNNY   68  54  60 W5        29.93R
WESTFIELD      MOSUNNY   72  52  49 W6        29.91R
PROVINCETOWN   PTSUNNY   72  63  73 CALM      29.90R
NANTUCKET      CLEAR     67  62  84 S9        29.93R
$$

ANZ330-335-338-340-345-350-353-355-300000-
COASTAL MARINE OBSERVATIONS


STATION/POSITION TIME  SKY/WX   TEMP    WIND        PRES    VSBY  WAVE
                                AIR SEA DIR/SP/G                  HT/PER
                 (UTC)          (F)     (DEG/KT/KT) (MB)    (MI)  (FT/S)
NY HARB ENTRANCE NOT AVBL
4S FIRE IS       NOT AVBL
23SW MTP         2300            71 71              1013.0          4/ 8
HUDSON CANYON    2300            72 75  270/  4/  4 1013.8          3/ 8
EXECUTION ROCKS  2300            73 70  350/ 10/ 16   N/A
WESTERN LI SOUND 2300            73     320/  8/ 10   N/A           0
CENTRAL LI SOUND 2200            72 71  250/ 10/ 12   N/A           1/ 2
EASTERN LI SOUND 2200            70 68  250/ 10/ 12   N/A
ROBBINS REEF     2300            74     300/ 10/ 11   N/A
$$


>>>>>>>>>>>>>>>>>>>>>>>>>>>> KEY <<<<<<<<<<<<<<<<<<<<<<<<<<<
>                                                          <
>     SKY/WX - SKY CONDITION/PRESENT WEATHER               <
>     TMP    - TEMPERATURE IN FAHRENHEIT                   <
>     DP     - DEWPOINT IN FAHRENHEIT                      <
>     RH     - RELATIVE HUMIDITY IN PERCENT                <
>     WIND   - DIRECTION AND SPEED IN MPH                  <
>     PRES   - MEAN SEA LEVEL PRESSURE IN INCHES OF HG     <
>     WCI    - WIND CHILL INDEX                            <
>     VSB    - VISIBILITY IN MILES                         <
>     HX     - HEAT INDEX                                  <
>     TC     - TEMPERATURE IN CELSIUS                      <
>     VRB    - VARIABLE WIND DIRECTION                     <
>                                                          <
>>>>>>>>>>>>>>>>>>>>>>>>>>>> KEY <<<<<<<<<<<<<<<<<<<<<<<<<<<





USA.gov is the U.S. government's official web portal to all federal, state and local government web resources and services.